SL-8 R/B

Satellite information

Favourite Embed

Satellite Type and Status

ROCKET BODYIN ORBIT

Key statistics

Satellite SL-8 R/B at a glance.

Uptime

15102

Days in orbit

Revolutions

≈ 13.8

Per day

Orbit

LEO

Low Earth Orbit

Inclination

83.0

Latest

Satellite identification and parameters

Extended collection of information and parameters for SL-8 R/B.

Object identification

Identified? True

Debris? False

Object name: SL-8 R/B

International designator: 1984-062B

Object number (NORAD): 15056

Object ID (CCSDS): 15056

Country: COMMONWEALTH OF INDEPENDENT STATES (CIS)

Current information (Y/N): Y

RCS size: LARGE

Orbital parameters

Period: 104.605 minutes

Inclination: 82.9586 deg

SMA: 7354.089 km

Apoapsis: 993.983 km

Periapsis: 957.924 km

RAAN: 215.4953 deg

Eccentricy: 0.00245165

Argument of periapsis: 190.2487 deg

Mean anomaly: 241.0384 deg

Mean motion: 13.76605418 rev/day

Mean motion (dot): 0.00000105 rev/day2

B* drag term: 0.000091563038 1/REarth

Two-line elements (TLE)

Creation date: Oct. 26, 2025, 2:54 a.m.

Reference frame: TEME

Reference center: EARTH

Epoch: Oct. 25, 2025, 9:58 p.m. UTC

TLE line 0: 0 SL-8 R/B

TLE line 1: 1 15056U 84062B 25298.91568492 .00000105 00000-0 91563-4 0 9991

TLE line 2: 2 15056 82.9586 215.4953 0024516 190.2487 241.0384 13.76605418 76113

Live tracking on map

Real-time ground track for satellite SL-8 R/B.

In-orbit conjunctions

A list of the most updated potential collisions computed for object SL-8 R/B.

Target Orbit TCA Probability of collision Miss distance Type
COSMOS 1725 LEO 2025-05-20 20:03:38 0.002330754 62.0 (m) PAYLOAD
COSMOS 2251 DEB LEO 2024-12-28 18:05:15 0.0007823453 76.0 (m) DEBRIS
NOAA 16 DEB SSO 2024-12-01 16:13:47 0.001869237 63.0 (m) DEBRIS

Associated space launch

Civilian navigation satellite equivalent to the purely military Parus

SL-8 R/B was lifted into orbit during the mission ‘Kosmos-3M | Nadezhda 3’, on board a Kosmos-3M space rocket.

The launch took place on June 21, 1984, 7:40 p.m. from 132/2.

For more information about the launch, click the button.

Launch to space Kosmos-3M | Nadezhda 3
Kosmos-3M | Nadezhda 3

Agency: N/A

Status: Launch Successful

Launch date: June 21, 1984, 7:40 p.m. UTC

Rocket: Kosmos-3M

Launch pad: 132/2

Location: Plesetsk Cosmodrome, Russian Federation

...

Latest news about this satellite

There are no fresh news available about this satellite. Check back as we update our databases every day.


Newsletter sign-up

Weekly statistics, charts and insights to help you stay on top of the space industry.